VE1DX Weather Reports


Display with metric or nautical units.
time (UTC)temp
F
wind
direction
speed
MPH
gust
MPH
rain 1hr
in
rain 24hr
in
rain mn
in
humidity
%
barometer
mb
20260503021517 43 0.0 0.0 0.00 0.01 0.01 75 1015.4
20260503021017 44 0.0 1.0 0.00 0.01 0.01 74 1015.4
20260503020517 44 0.0 0.0 0.00 0.01 0.01 69 1015.4
20260503020017 44 0.0 0.0 0.00 0.01 0.01 69 1015.4
20260503015517 44 0.0 0.0 0.00 0.01 0.01 70 1015.5
20260503015017 45 0.0 1.0 0.00 0.01 0.01 69 1015.5
20260503014517 45 113 1.0 2.0 0.00 0.01 0.01 69 1015.5
20260503014017 45 0.0 2.0 0.00 0.01 0.01 68 1015.6
20260503013517 46 0.0 1.0 0.00 0.01 0.01 68 1015.6
20260503013017 46 0.0 1.0 0.00 0.01 0.01 65 1015.7
20260503012517 46 0.0 1.0 0.00 0.01 0.01 64 1015.6
20260503012017 47 0.0 0.0 0.00 0.01 0.01 62 1015.7
20260503011517 47 0.0 0.0 0.00 0.01 0.01 60 1015.6
20260503011017 47 0.0 1.0 0.00 0.01 0.01 61 1015.6
20260503010517 48 135 1.0 3.0 0.00 0.01 0.01 59 1015.6
20260503010017 48 135 1.0 3.0 0.00 0.01 0.01 59 1015.5
20260503005518 49 0.0 1.0 0.00 0.01 0.01 57 1015.5
20260503005018 49 0.0 1.0 0.00 0.01 0.01 54 1015.4
20260503004517 49 0.0 1.0 0.00 0.01 0.01 52 1015.3
20260503004017 50 0.0 4.0 0.00 0.01 0.01 51 1015.3
20260503003517 50 158 1.0 4.0 0.00 0.01 0.01 51 1015.2
20260503003017 50 0.0 3.0 0.00 0.01 0.01 51 1015.2
20260503002517 50 0.0 3.0 0.00 0.01 0.01 50 1015.2
20260503002017 50 0.0 3.0 0.00 0.01 0.01 51 1015.2
20260503001517 50 0.0 1.0 0.00 0.01 0.01 52 1015.2
20260503001017 51 0.0 2.0 0.00 0.01 0.01 52 1015.1
20260503000517 51 0.0 1.0 0.00 0.01 0.01 52 1015.1
20260503000017 51 0.0 1.0 0.00 0.01 0.01 52 1015.0
20260502235517 51 0.0 2.0 0.00 0.01 0.01 50 1015.0
20260502235017 51 0.0 3.0 0.00 0.01 0.01 50 1015.0
20260502234517 52 0.0 4.0 0.00 0.01 0.01 50 1015.0
20260502234017 52 0.0 3.0 0.00 0.01 0.01 49 1014.9
20260502233517 52 0.0 1.0 0.00 0.01 0.01 49 1014.9
20260502233017 52 0.0 2.0 0.00 0.01 0.01 48 1014.8
20260502232517 53 225 1.0 3.0 0.00 0.01 0.01 48 1014.8
20260502232017 53 203 1.0 3.0 0.00 0.01 0.01 47 1014.8
20260502231517 53 0.0 1.0 0.00 0.01 0.01 48 1014.8
20260502231017 54 0.0 5.0 0.00 0.01 0.01 47 1014.6
20260502230517 54 225 1.0 4.0 0.00 0.01 0.01 46 1014.7
20260502230017 55 225 1.0 5.0 0.00 0.01 0.01 45 1014.8
20260502225517 55 113 1.0 4.0 0.00 0.01 0.01 45 1014.7
20260502225017 55 203 2.0 5.0 0.00 0.01 0.01 44 1014.7
20260502224517 56 225 2.0 7.0 0.00 0.01 0.01 44 1014.6
20260502224017 56 225 1.0 7.0 0.00 0.01 0.01 45 1014.4
20260502223517 56 225 2.0 8.0 0.00 0.01 0.01 45 1014.3
20260502223017 57 135 1.0 5.0 0.00 0.01 0.01 45 1014.2
20260502222517 57 225 1.0 4.0 0.00 0.01 0.01 45 1014.1
20260502222017 57 225 2.0 5.0 0.00 0.01 0.01 45 1014.2
20260502221517 58 113 2.0 4.0 0.00 0.01 0.01 46 1014.1
20260502221017 58 113 1.0 3.0 0.00 0.01 0.01 45 1014.0
20260502220518 58 225 2.0 7.0 0.00 0.01 0.01 45 1013.8
20260502220017 58 203 1.0 9.0 0.00 0.01 0.01 46 1013.9
20260502215517 59 225 1.0 4.0 0.00 0.01 0.01 45 1013.7
20260502215017 59 113 1.0 4.0 0.00 0.02 0.01 46 1013.8
20260502214517 61 135 2.0 7.0 0.00 0.02 0.01 43 1013.6
20260502214017 62 158 2.0 6.0 0.00 0.02 0.01 45 1013.6
20260502213517 63 113 1.0 5.0 0.00 0.02 0.01 44 1013.6
20260502213017 63 90 1.0 4.0 0.00 0.03 0.01 42 1013.5
20260502212517 63 225 2.0 6.0 0.00 0.03 0.01 41 1013.5
20260502212017 63 225 2.0 7.0 0.00 0.03 0.01 43 1013.3
20260502211517 63 0.0 2.0 0.00 0.03 0.01 43 1013.3
20260502211017 63 203 1.0 4.0 0.00 0.03 0.01 45 1013.2
20260502210517 63 203 2.0 5.0 0.00 0.04 0.01 44 1013.2
20260502210017 63 225 2.0 5.0 0.00 0.04 0.01 44 1013.3
20260502205517 63 158 2.0 5.0 0.00 0.04 0.01 45 1013.4
20260502205017 63 113 2.0 8.0 0.00 0.04 0.01 45 1013.4
20260502204517 63 135 2.0 6.0 0.00 0.04 0.01 45 1013.4
20260502204017 63 158 3.0 8.0 0.00 0.04 0.01 44 1013.4
20260502203017 63 135 2.0 5.0 0.00 0.05 0.01 46 1013.3
20260502202517 63 113 2.0 5.0 0.00 0.05 0.01 45 1013.3
20260502202017 63 225 3.0 7.0 0.00 0.05 0.01 47 1013.3
20260502201517 63 135 2.0 5.0 0.00 0.06 0.01 49 1013.2
20260502201017 63 135 2.0 6.0 0.00 0.06 0.01 50 1013.1
20260502200517 63 158 2.0 6.0 0.00 0.06 0.01 50 1013.1
20260502200017 63 113 2.0 6.0 0.00 0.06 0.01 50 1013.0
20260502195017 64 0 2.0 6.0 0.00 0.07 0.01 30 1013.1
20260502194517 64 113 1.0 4.0 0.00 0.07 0.01 32 1012.9
20260502194017 63 315 2.0 4.0 0.00 0.08 0.01 31 1012.9
20260502193517 63 315 2.0 5.0 0.00 0.09 0.01 32 1012.9
20260502193017 64 315 2.0 5.0 0.00 0.10 0.01 31 1012.9
20260502192017 62 315 4.0 8.0 0.00 0.12 0.01 33 1012.5
20260502191517 62 338 6.0 9.0 0.00 0.13 0.01 34 1012.5
20260502191017 62 0 6.0 11.0 0.00 0.15 0.01 32 1012.4
20260502190517 62 0 6.0 9.0 0.00 0.16 0.01 32 1012.4
20260502190017 62 0 7.0 13.0 0.00 0.18 0.01 31 1012.5
20260502185517 62 315 5.0 9.0 0.00 0.19 0.01 34 1012.5
20260502185017 62 0 5.0 10.0 0.00 0.19 0.01 32 1012.5
20260502184517 62 338 6.0 11.0 0.00 0.20 0.01 32 1012.7
20260502184017 62 315 5.0 12.0 0.00 0.21 0.01 32 1012.6
20260502183517 62 338 5.0 12.0 0.00 0.23 0.01 33 1012.7
20260502183017 62 0 6.0 12.0 0.00 0.24 0.01 33 1012.7
20260502182517 62 338 6.0 11.0 0.00 0.24 0.01 35 1012.8
20260502182017 62 315 2.0 5.0 0.00 0.26 0.01 38 1012.9
20260502181517 61 315 5.0 11.0 0.00 0.27 0.01 36 1012.9
20260502181017 61 338 5.0 8.0 0.00 0.28 0.01 36 1013.0
20260502180517 62 315 3.0 9.0 0.00 0.28 0.01 35 1013.0
20260502170517 60 293 3.0 6.0 0.00 0.50 0.01 37 1013.3
20260502164017 60 293 4.0 10.0 0.00 0.53 0.01 38 1013.6
20260502163517 59 315 3.0 6.0 0.00 0.53 0.01 41 1013.6
20260502163017 59 315 4.0 7.0 0.00 0.54 0.01 46 1013.5
20260502162517 59 315 4.0 7.0 0.00 0.54 0.01 47 1013.4
20260502162017 58 315 4.0 12.0 0.00 0.54 0.01 47 1013.4
20260502161517 58 315 3.0 9.0 0.00 0.54 0.01 47 1013.4
20260502161017 58 315 3.0 7.0 0.00 0.54 0.01 46 1013.3
20260502160517 58 315 3.0 6.0 0.00 0.54 0.01 48 1013.3
20260502152017 56 315 3.0 7.0 0.00 0.54 0.01 52 1013.5
20260502151517 56 315 3.0 6.0 0.00 0.54 0.01 56 1013.6
20260502151017 55 338 4.0 9.0 0.00 0.54 0.01 54 1013.6
20260502150517 55 0 5.0 9.0 0.00 0.54 0.01 54 1013.6
20260502130517 49 315 4.0 8.0 0.00 0.69 0.01 78 1013.2
20260502123517 48 315 3.0 6.0 0.00 0.71 0.01 85 1012.9
20260502123017 47 338 4.0 9.0 0.00 0.71 0.01 86 1012.9
20260502122517 47 338 5.0 10.0 0.00 0.71 0.01 87 1012.8
20260502122017 47 338 4.0 10.0 0.00 0.71 0.01 89 1012.7
20260502121517 47 315 2.0 5.0 0.00 0.72 0.01 90 1012.6
20260502121017 46 315 3.0 6.0 0.00 0.72 0.01 91 1012.6
20260502120517 45 338 4.0 8.0 0.00 0.72 0.01 91 1012.7
20260502115517 45 338 3.0 6.0 0.00 0.72 0.01 93 1012.7
20260502115017 45 315 2.0 5.0 0.00 0.72 0.01 93 1012.8
20260502114517 45 293 3.0 6.0 0.00 0.72 0.01 94 1012.7
20260502114017 44 315 3.0 5.0 0.00 0.72 0.01 94 1012.6
20260502113517 44 315 3.0 5.0 0.00 0.72 0.01 94 1012.5
20260502113017 44 315 3.0 7.0 0.00 0.72 0.01 94 1012.4
20260502112517 44 315 2.0 5.0 0.00 0.72 0.01 94 1012.5
20260502112017 44 293 3.0 6.0 0.00 0.72 0.01 94 1012.4
20260502111517 44 315 2.0 4.0 0.00 0.72 0.01 94 1012.3
20260502111017 44 315 1.0 3.0 0.00 0.72 0.01 94 1012.4
20260502110517 44 293 1.0 2.0 0.00 0.72 0.01 94 1012.4
20260502110017 44 315 1.0 3.0 0.00 0.72 0.01 94 1012.2
20260502105517 43 315 1.0 2.0 0.00 0.72 0.01 94 1012.0
20260502105017 43 0.0 1.0 0.00 0.72 0.01 94 1011.9
20260502104517 42 0.0 2.0 0.00 0.72 0.01 94 1011.9
20260502104017 42 0.0 0.0 0.00 0.72 0.01 94 1011.8
20260502103517 42 0.0 0.0 0.00 0.72 0.01 94 1011.7
20260502103017 42 0.0 2.0 0.00 0.72 0.01 94 1011.7
20260502102517 41 0.0 0.0 0.00 0.72 0.01 94 1011.6
20260502102017 41 0.0 0.0 0.00 0.72 0.01 94 1011.6
20260502101517 41 0.0 0.0 0.00 0.72 0.01 94 1011.5
20260502101017 41 0.0 0.0 0.00 0.72 0.01 94 1011.5
20260502100517 41 0.0 1.0 0.00 0.72 0.01 94 1011.4
20260502091517 38 0.0 0.0 0.00 0.74 0.01 94 1010.6
20260502091017 39 0.0 0.0 0.00 0.74 0.01 94 1010.5
20260502090517 39 0.0 0.0 0.00 0.74 0.01 94 1010.4
20260502071517 43 0.0 0.0 0.01 0.82 0.01 94 1009.6
20260502071017 43 0.0 0.0 0.01 0.82 0.01 94 1009.5
20260502070517 44 0.0 0.0 0.01 0.82 0.01 94 1009.5
20260502070017 44 0.0 0.0 0.01 0.82 0.01 94 1009.4
20260502065517 44 0.0 0.0 0.01 0.82 0.01 94 1009.4
20260502065017 44 0.0 0.0 0.00 0.81 0.00 94 1009.2
20260502064517 44 0.0 0.0 0.00 0.81 0.00 94 1009.2
20260502064017 44 0.0 0.0 0.00 0.81 0.00 94 1009.2
20260502063517 44 0.0 0.0 0.00 0.81 0.00 94 1009.2
20260502063017 44 0.0 0.0 0.00 0.81 0.00 94 1009.1
20260502062517 44 0.0 0.0 0.00 0.81 0.00 94 1009.1
20260502062017 44 0.0 0.0 0.00 0.81 0.00 94 1008.9
20260502061517 45 0.0 0.0 0.00 0.81 0.00 94 1008.9
20260502061017 45 0.0 0.0 0.00 0.81 0.00 94 1008.8
20260502060517 45 0.0 0.0 0.00 0.81 0.00 94 1008.8
20260502060017 45 0.0 0.0 0.00 0.81 0.00 94 1008.8
20260502055517 45 0.0 0.0 0.00 0.81 0.00 94 1008.8
20260502055017 45 0.0 0.0 0.00 0.81 0.00 94 1008.8
20260502054517 45 0.0 0.0 0.00 0.81 0.00 94 1008.7
20260502054017 45 0.0 0.0 0.00 0.81 0.00 94 1008.6
20260502053517 45 0.0 0.0 0.00 0.81 0.00 94 1008.6
20260502053017 45 0.0 0.0 0.00 0.81 0.00 94 1008.6
20260502052517 45 0.0 0.0 0.00 0.81 0.00 94 1008.5
20260502052017 45 0.0 0.0 0.00 0.81 0.00 94 1008.5
20260502051517 45 0.0 0.0 0.00 0.81 0.00 94 1008.5
20260502051017 45 0.0 0.0 0.00 0.81 0.00 94 1008.4
20260502050517 45 0.0 0.0 0.00 0.81 0.00 94 1008.4
20260502050017 45 0.0 0.0 0.00 0.81 0.00 94 1008.3
20260502045517 45 0.0 0.0 0.00 0.81 0.00 94 1008.2
20260502045017 45 0.0 0.0 0.00 0.81 0.00 94 1008.2
20260502044517 45 0.0 0.0 0.00 0.81 0.00 94 1008.1
20260502044017 45 0.0 0.0 0.00 0.81 0.00 94 1008.1
20260502043517 45 0.0 0.0 0.00 0.81 0.00 94 1008.1
20260502043017 45 0.0 0.0 0.00 0.81 0.00 94 1008.1
20260502042517 45 0.0 0.0 0.00 0.81 0.00 94 1008.1
20260502042017 45 0.0 0.0 0.00 0.81 0.00 94 1008.0
20260502041517 45 0.0 0.0 0.00 0.81 0.00 94 1007.9
20260502041017 45 0.0 0.0 0.00 0.81 0.00 94 1007.9
20260502040517 45 0.0 0.0 0.00 0.81 0.00 94 1007.9
20260502040017 45 0.0 0.0 0.00 0.81 0.00 94 1007.9
20260502035517 45 0.0 0.0 0.00 0.81 0.00 94 1007.9
20260502035017 45 0.0 0.0 0.00 0.81 0.00 94 1007.9
20260502034517 45 0.0 0.0 0.00 0.81 0.00 94 1007.7
20260502034017 45 0.0 0.0 0.00 0.81 0.00 94 1007.7
20260502033517 45 0.0 0.0 0.00 0.81 0.00 94 1007.7
20260502033017 45 0.0 0.0 0.00 0.81 0.00 94 1007.6
20260502032517 46 0.0 0.0 0.00 0.81 0.00 94 1007.6
20260502032017 46 0.0 0.0 0.00 0.81 0.00 94 1007.5
20260502031517 46 0.0 0.0 0.00 0.81 0.00 94 1007.5
20260502031017 46 0.0 0.0 0.00 0.81 0.00 94 1007.5
20260502030517 46 0.0 0.0 0.00 0.81 0.00 94 1007.5
20260502030017 46 0.0 0.0 0.00 0.81 0.81 94 1007.6
20260502025515 46 0.0 0.0 0.00 0.81 0.81 94 1007.6
20260502025015 46 0.0 0.0 0.00 0.81 0.81 94 1007.6
20260502024515 46 0.0 0.0 0.00 0.81 0.81 94 1007.6
20260502024015 46 0.0 0.0 0.00 0.81 0.81 94 1007.6
20260502023515 46 0.0 0.0 0.00 0.81 0.81 94 1007.5
20260502023015 46 0.0 0.0 0.00 0.81 0.81 94 1007.6
20260502022515 46 0.0 0.0 0.00 0.81 0.81 94 1007.5
20260502022015 46 0.0 0.0 0.00 0.81 0.81 94 1007.5